Starlink 36201

operational
NORAD ID: 67164 Int'l Des: 2025-303 Owner: SPXS Country: US Constellation: starlink
LEOCIRCULAR

About Starlink 36201

Description loading...

Live Position

Loading 3D Globe...

Upcoming Passes

Altitude History

Altitude vs Time

uPlot chart will show altitude changes over time

Two-Line Element Set

1 67164C 25303B 26011.77687500 .00050655 00000+0 12109-2 0 117
2 67164 42.9995 276.3085 0001495 281.2962 52.4978 15.40592260 14
Epoch: Jan 11, 2026 • Age: 65 hours

Current Status

Altitude 453.9 km
Velocity 7.64 km/s
Sub-Earth Point -36.77°S, 131.05°E
Launch Date Dec 17, 2025
Age 27 days
Type internet

Technical Details

Classification Payload
Mass 575.00 kg
Dry Mass 530.00 kg
Total Mass 575.00 kg
Length 0.30 m
Diameter 4.10 m
Span 29.00 m
Shape Box + pan
Manufacturer SPXS
Bus Type Starlink V2MO
Phase Status In Orbit
Owner/State SPXS/US

Large Constellations

Loading constellations...